Location: Praha
(50.0830°N, 14.4670°E)
Time: 02:17:54
(UTC+02:00)

ISS - Pass Details

Date: 14 May 2024
Orbit: 409 x 414 km, 51.6° (Epoch: 23 May)

Event Time Altitude Azimuth Distance (km) Brightness Sun altitude
Rises 00:21:08 0° 279° (W) 2,349 0.3 -20.7°
Reaches altitude 10° 00:23:15 10° 282° (WNW) 1,485 -0.7 -20.8°
Maximum altitude 00:26:34 68° 6° (N) 448 -3.5 -20.9°
Enters shadow 00:26:48 64° 38° (NE) 459 -3.5 -20.9°
